User: anonymous   Login
Location: Ashtead
(51.3000°N, 0.3000°W)
Time: 10:44:57
(UTC+00:00)
Language:

NOSS 3-4 (A) - Orbit

View from above orbital plane
View from above orbital plane
View from above satellite
View from above satellite

Ground track
Ground track

The orbit data is extracted from the following two-line orbital elements,

1 31701U 07027A   24053.84100768 0.00000400  00000-0  45721-3 0    05
2 31701  63.3862 329.8050 0395525  20.8672 339.1328 13.40808178    02
Epoch (UTC): 22 February 2024 20:11:03
Eccentricity: 0.0395525
inclination: 63.3862°
perigee height: 810 km
apogee height: 1402 km
right ascension of ascending node: 329.8050°
argument of perigee: 20.8672°
revolutions per day: 13.40808178
mean anomaly at epoch: 339.1328°
orbit number at epoch: 0

The dashed part of the orbit path shows where the satellite is in the earth's shadow,  

DLR